Location: *
(43.9900°N, 3.4811°E)
Time: 04:55:32
(UTC+00:00)

Cosmos 2369 - Pass Details

Date: 25 August 2019
Orbit: 841 x 854 km, 71.0° (Epoch: 15 September)

Event Time Altitude Azimuth Distance (km) Brightness Sun altitude
Rises 20:21:56 0° 334° (NNW) 3,406 7.9 -18.1°
Reaches altitude 10° 20:24:23 10° 334° (NNW) 2,468 7.0 -18.5°
Maximum altitude 20:30:04 88° 246° (WSW) 849 3.6 -19.3°
Enters shadow 20:32:47 32° 158° (SSE) 1,399 4.4 -19.7°
